Temperature
18 17 18 18 18 17 18 18 18 18 18 18 18 18 18 18 18 18 18 18 18 18 18 18 18 18 18 18 18 18 18 18 18 18 18 18 18 18 18 18 18 18 18
18 17 18 18 17 17 17 17 18 18 17 17 18 18 17 17 18 18 18 18 18 18 18 18 18 18 18 18 18 18 18 18 18 18 18 18 18 18 18 18 18 18 18
18 17 17 17 17 17 17 17 17 17 17 17 17 17 17 17 17 17 17 17 17 17 18 18 18 18 18 18 18 18 18 18 18 17 17 17 18 18 18 18 18 18 18
18 17 17 17 17 17 17 17 17 17 17 17 17 17 17 17 17 17 17 17 17 17 17 17 17 17 18 18 18 18 17 17 17 17 17 17 17 18 18 18 18 18 18
18 17 17 17 17 17 17 17 17 17 17 17 17 17 17 17 17 17 17 17 17 17 17 17 17 17 17 17 17 17 17 17 17 17 17 17 17 17 17 17 17 17 17
18 17 17 17 17 17 17 17 17 17 17 17 17 17 17 17 17 17 17 17 17 17 17 17 17 17 17 17 17 17 17 17 17 17 17 17 17 17 17 17 17 17 17
18 17 17 17 17 17 17 17 17 17 17 17 17 17 17 17 17 17 17 17 17 17 17 17 17 17 17 17 17 17 17 17 16 17 17 17 17 17 17 17 17 17 17
18 18 18 17 17 17 17 17 17 17 17 17 17 17 17 17 17 17 17 17 17 17 17 17 17 17 17 17 17 17 16 16 16 16 16 16 16 17 17 17 17 17 17
18 18 18 17 17 17 17 17 17 17 17 17 17 17 16 16 16 17 17 17 17 17 17 17 17 17 17 17 17 16 16 16 16 16 16 16 16 16 16 16 16 16 16
18 18 18 17 17 17 17 17 17 17 17 16 16 16 16 16 16 16 16 16 16 16 16 16 16 16 16 16 16 16 16 16 16 16 16 16 16 16 16 16 16 16 16
18 18 18 17 17 17 17 17 16 16 17 16 16 16 16 16 16 16 16 16 16 16 16 16 16 16 16 16 16 16 16 16 16 16 16 16 16 16 16 16 16 16 16
19 18 18 18 17 17 17 17 16 16 16 16 16 16 16 16 16 16 16 16 16 16 16 16 16 16 16 16 16 16 16 16 16 16 16 16 16 16 16 15 15 15 16
19 18 18 18 18 17 17 17 17 16 16 16 16 16 16 16 16 16 16 16 16 16 16 16 16 16 16 16 16 16 15 15 15 15 15 16 15 15 15 15 15 15 15
19 19 18 18 18 18 17 17 17 17 16 16 16 16 16 16 16 16 16 16 16 16 16 16 16 16 16 16 16 15 15 15 15 15 15 15 15 15 15 15 15 15 15
19 19 18 18 18 18 17 17 17 17 16 16 16 16 16 16 16 16 16 16 16 16 16 16 16 16 16 15 15 15 15 15 15 15 15 15 15 15 15 15 15 15 15
19 19 18 18 18 18 17 17 17 17 16 16 16 16 16 16 16 16 16 16 16 16 16 16 15 16 15 15 15 15 15 15 15 15 15 15 15 15 15 15 15 15 15
19 19 18 18 18 18 17 17 17 17 16 16 16 16 16 16 16 16 16 16 16 15 15 15 15 15 15 15 15 15 15 15 15 15 15 15 15 15 15 15 15 15 15
19 19 18 18 18 18 17 17 17 17 16 16 16 16 16 16 16 16 16 16 15 15 15 15 15 15 15 15 15 15 15 15 15 14 14 14 14 14 14 14 14 14 14
19 19 19 18 18 17 17 17 17 16 16 16 16 16 16 16 16 16 16 16 15 15 15 15 15 15 15 15 15 15 15 15 15 14 14 14 14 14 14 14 14 14 14
19 19 18 18 18 17 17 17 16 16 16 16 16 16 16 16 16 16 15 15 15 15 15 15 15 15 15 15 15 15 15 15 15 14 14 14 14 14 14 14 14 14 14
19 19 18 18 18 17 17 17 16 16 16 16 16 16 16 16 16 15 15 15 15 15 15 15 15 15 15 15 15 15 15 15 14 14 14 14 14 13 13 13 13 13 13
19 19 18 18 18 17 17 17 16 16 16 16 16 16 16 15 15 15 15 15 15 15 15 15 15 15 15 15 15 15 14 14 14 14 14 14 14 13 13 13 13 13 13
19 19 18 18 18 17 17 17 16 16 16 16 16 16 15 15 15 15 15 15 15 15 15 15 15 15 14 15 15 14 14 14 14 14 14 14 13 13 13 13 13 13 13
19 19 18 18 18 17 17 16 16 16 16 16 16 16 15 15 15 15 15 15 15 15 15 15 15 14 15 14 14 14 14 14 14 13 13 13 13 13 13 13 13 13 13
18 18 18 18 17 17 17 16 16 16 16 16 16 16 15 15 15 15 15 15 15 15 15 15 15 15 14 14 14 14 14 14 14 14 13 13 13 13 13 13 13 13 13
18 18 17 17 17 17 17 16 16 16 16 16 16 15 15 15 15 15 15 15 15 15 15 15 15 15 14 14 14 14 14 14 14 14 14 13 13 13 13 13 13 13 13
Wind_Speed
6 10 11 11 11 11 11 12 12 12 11 11 12 12 12 12 13 12 12 12 13 13 13 14 14 14 15 14 14 13 12 11 11 11 11 11 11 11 11 11 10 10 12
8 12 12 11 11 11 11 12 13 12 12 12 12 13 13 13 13 12 12 12 13 13 13 13 14 15 15 15 14 13 12 11 10 10 10 11 11 11 11 12 11 10 12
10 11 12 11 11 11 12 12 12 13 13 13 12 12 13 13 12 12 12 12 12 13 13 14 14 15 15 15 14 12 11 10 10 9 9 9 10 12 12 12 13 13 12
10 12 11 11 11 11 11 11 11 12 12 12 12 12 12 12 12 12 12 13 13 13 13 13 14 14 15 14 13 12 11 10 11 10 9 10 11 13 13 13 13 13 12
10 13 12 11 11 11 11 11 11 11 11 11 11 11 12 12 12 12 13 13 13 13 13 13 14 14 14 14 13 12 12 12 12 12 12 13 12 14 14 14 13 13 12
10 13 11 10 11 11 11 11 11 11 11 10 10 10 11 11 11 12 13 13 13 13 13 14 14 14 14 14 12 11 12 13 12 12 12 13 13 15 15 14 14 13 12
9 11 12 11 11 11 11 11 11 11 10 10 10 10 10 11 11 12 12 13 13 13 14 14 14 14 14 13 12 11 12 12 12 12 11 12 14 15 15 14 14 13 13
8 9 11 11 11 11 11 11 10 10 10 10 9 9 10 11 11 12 12 13 13 13 14 14 13 13 12 12 12 12 12 12 13 13 12 12 14 15 14 15 14 13 13
7 7 8 11 10 11 11 10 9 8 8 8 8 8 9 10 11 12 12 13 13 14 14 13 13 12 12 11 11 11 12 13 11 10 11 11 13 13 14 14 14 13 13
5 6 6 8 9 9 9 9 8 7 6 6 6 7 8 9 10 11 12 13 13 13 12 12 12 11 11 10 9 9 11 12 12 11 10 11 13 13 13 13 13 13 12
5 4 5 6 6 7 8 8 7 6 4 4 4 5 6 7 9 11 12 12 11 11 10 10 10 9 8 7 7 9 10 9 11 11 11 12 12 12 13 13 12 12 11
4 4 4 5 5 5 5 6 4 4 3 3 4 4 5 8 9 11 11 10 9 8 7 7 7 6 5 4 6 7 8 10 11 11 11 12 12 12 12 12 12 12 11
5 4 4 5 5 4 4 4 3 4 3 3 5 6 6 7 8 8 6 7 6 6 4 5 4 4 6 6 6 7 9 10 11 11 11 12 11 12 13 13 12 11 11
4 4 3 4 5 5 5 3 3 2 2 3 4 6 5 3 4 4 3 4 5 4 3 3 3 5 6 7 8 8 9 9 11 10 11 13 13 13 13 13 13 12 11
4 3 4 4 5 5 4 2 4 3 3 4 3 4 6 3 3 3 3 3 4 4 3 3 4 6 6 6 8 8 7 9 11 11 11 14 15 14 13 12 12 12 12
5 4 4 4 5 5 4 3 3 3 3 4 3 4 6 5 4 3 3 3 3 4 5 5 5 5 5 5 6 7 7 8 10 11 11 12 14 14 13 12 12 12 11
5 5 4 4 5 5 4 4 3 3 4 3 3 4 5 6 5 4 3 3 3 5 6 6 6 4 4 4 5 6 6 7 8 9 10 10 11 12 12 12 12 11 11
6 5 5 4 5 5 4 4 3 4 4 4 3 4 4 6 8 5 3 2 5 6 5 4 4 4 4 4 4 4 5 5 6 7 8 9 9 9 10 11 11 11 11
6 6 5 5 5 5 4 3 3 4 4 4 4 4 5 7 8 6 3 3 6 4 3 4 4 4 4 4 4 4 4 4 4 6 6 7 8 10 10 11 11 11 11
5 6 6 5 5 5 3 3 3 3 3 3 3 3 5 6 7 5 3 4 4 4 4 4 4 3 3 3 4 5 3 3 4 4 5 6 7 8 9 9 9 9 11
5 5 6 6 5 4 3 2 2 2 2 2 3 5 5 6 6 5 3 3 3 3 3 3 4 4 3 2 3 3 3 3 3 3 4 4 4 6 7 8 8 8 8
5 5 5 6 6 5 3 3 2 3 2 3 2 3 4 4 4 4 3 3 3 3 3 4 3 2 1 1 1 2 1 2 3 3 3 3 3 4 5 6 8 8 8
5 5 5 5 5 6 5 3 2 3 2 3 2 2 2 4 3 3 3 3 3 3 3 3 3 2 1 1 2 2 1 1 1 2 2 2 3 3 3 4 6 8 9
5 4 4 4 5 5 5 3 3 3 3 3 2 2 1 3 3 2 2 3 3 3 3 2 3 2 2 1 1 1 1 2 2 1 1 1 2 2 2 3 5 7 9
5 4 4 3 4 4 5 5 3 3 2 2 2 3 2 2 2 2 2 2 2 2 3 3 3 2 1 1 0 0 1 1 1 2 1 0 1 1 2 2 4 6 7
5 5 4 4 3 3 3 4 4 4 3 3 2 2 2 2 1 2 2 2 2 2 2 2 2 3 1 1 0 0 1 0 1 1 1 2 1 0 1 2 3 5 6
Wind_Direction
76 78 57 48 44 46 50 51 49 53 57 60 59 61 64 67 67 65 63 63 64 63 62 62 61 60 62 74 88 89 89 88 87 86 87 85 85 85 84 86 88 91 96
82 81 66 55 51 53 56 54 52 55 59 62 62 64 65 65 66 67 68 69 68 67 66 66 66 65 67 74 81 84 86 85 86 88 89 84 84 85 85 84 86 88 93
85 83 71 58 57 59 59 59 57 58 59 62 65 68 67 65 66 68 70 74 73 71 70 68 68 69 70 71 75 78 78 77 76 80 82 84 85 84 85 85 87 90 90
86 83 74 66 62 62 62 62 60 61 62 62 65 69 69 67 67 68 70 73 75 73 73 73 72 72 71 69 70 70 68 67 69 68 67 73 78 85 86 85 86 89 87
87 87 82 74 68 66 65 63 62 61 62 63 65 69 71 70 68 71 74 74 74 73 74 76 75 74 72 70 69 68 64 60 64 65 67 71 75 84 83 83 84 85 86
94 96 93 82 76 71 67 65 65 63 63 64 66 71 73 73 71 74 76 77 76 75 76 77 77 75 73 70 68 67 64 64 66 66 65 72 76 82 83 83 82 82 83
100 102 105 97 88 80 74 69 68 65 65 67 70 74 76 75 77 78 80 80 79 79 80 79 78 78 75 69 65 63 68 69 78 72 68 72 79 84 85 83 82 79 79
102 108 115 117 105 94 84 75 73 70 68 71 75 80 82 81 83 84 85 85 83 83 84 81 79 77 74 71 65 58 57 64 78 76 71 74 81 84 84 82 80 78 76
102 107 120 127 118 106 96 88 86 82 78 80 86 89 92 90 90 90 88 88 86 85 86 86 83 78 75 71 64 57 56 64 72 77 79 77 83 86 84 81 79 77 75
104 115 120 123 122 121 116 107 106 103 96 96 102 104 105 103 96 95 92 90 90 90 92 93 90 83 77 72 65 62 62 62 69 71 75 81 86 87 86 83 80 79 76
95 95 105 113 117 117 119 120 132 125 120 128 127 127 125 117 107 97 97 96 96 97 99 100 100 97 87 76 66 65 69 73 73 72 71 81 86 88 88 85 81 80 77
99 96 94 103 104 106 100 117 126 115 119 135 108 112 117 101 98 101 107 107 107 107 110 109 113 114 107 92 79 72 76 75 75 73 73 79 84 88 86 84 81 79 77
101 91 94 102 99 98 94 97 92 88 86 71 77 86 84 96 105 105 112 118 115 111 102 101 100 90 85 78 79 78 76 75 76 71 67 72 82 90 86 82 80 80 79
97 100 98 100 106 100 101 102 100 87 88 69 58 84 81 84 87 95 99 106 109 100 83 89 84 77 76 74 77 77 77 83 86 79 70 73 83 90 85 79 76 75 76
114 106 93 96 96 97 94 109 101 75 72 87 61 76 91 88 88 91 91 82 89 95 79 63 66 66 61 57 66 71 74 83 90 85 76 77 83 85 83 79 76 76 74
127 119 108 106 101 106 111 110 93 100 90 78 68 76 94 98 90 80 78 75 72 74 77 78 74 74 71 62 62 65 67 76 90 96 90 81 81 82 79 77 77 77 75
127 118 108 100 95 89 83 86 99 102 93 77 56 58 79 92 97 89 67 72 81 75 71 70 69 74 81 78 72 68 66 71 83 90 96 94 86 80 80 78 77 75 73
130 123 119 108 99 86 76 74 79 82 76 74 60 43 70 88 85 83 68 57 78 79 76 68 61 64 62 62 67 68 67 64 76 86 91 94 95 92 84 82 78 74 72
136 132 125 107 103 96 88 87 70 82 82 77 61 38 56 79 87 90 76 66 73 71 65 69 66 66 68 66 74 73 68 63 62 81 81 84 91 101 98 89 84 75 71
138 135 122 115 110 109 102 99 86 72 74 80 77 58 58 77 88 94 95 78 75 66 60 68 78 71 74 72 77 75 70 75 60 68 77 80 84 94 104 107 95 78 69
139 132 129 131 125 113 106 102 103 101 90 75 72 67 62 72 87 92 91 93 84 87 89 83 82 77 66 73 80 67 50 63 70 72 69 70 72 83 99 108 110 100 85
146 140 138 139 135 129 128 134 138 124 113 101 80 75 73 80 80 99 109 107 95 91 89 88 86 71 59 94 108 104 79 37 22 60 69 73 67 71 81 97 106 108 101
150 148 146 143 139 136 136 123 122 105 105 99 98 88 77 91 85 92 111 124 131 125 121 124 121 110 77 355 50 92 117 137 39 22 68 80 66 62 63 77 91 101 103
140 135 131 132 133 131 130 129 133 128 128 131 125 127 128 113 104 96 100 114 108 114 131 148 129 119 108 27 355 21 80 130 138 109 357 65 83 74 65 62 84 93 97
132 128 128 133 128 128 137 142 141 123 128 122 120 135 121 101 106 108 87 83 88 104 118 109 107 101 97 114 108 358 38 39 134 142 159 163 53 59 70 78 89 96 103
119 119 121 123 114 120 140 139 140 128 126 121 110 116 109 109 87 94 95 94 88 79 90 105 124 133 148 133 13 47 130 124 133 120 144 156 133 68 59 78 97 109 109
Height
1515 1512 1511 1510 1509 1509 1508 1507 1507 1506 1506 1506 1506 1506 1505 1505 1505 1505 1505 1505 1505 1505 1504 1504 1503 1502 1498 1495 1499 1504 1507 1509 1511 1512 1513 1514 1515 1516 1517 1517 1518 1519 1521
1515 1513 1512 1511 1510 1510 1509 1509 1508 1507 1507 1507 1507 1507 1507 1507 1507 1507 1507 1507 1507 1507 1507 1506 1506 1506 1504 1504 1506 1508 1510 1511 1513 1514 1515 1516 1517 1517 1518 1519 1520 1521 1522
1515 1514 1513 1512 1511 1511 1510 1510 1509 1509 1509 1509 1509 1509 1509 1509 1509 1509 1509 1509 1509 1509 1509 1509 1509 1509 1509 1509 1510 1511 1512 1514 1515 1516 1517 1517 1518 1519 1520 1520 1521 1522 1523
1516 1515 1514 1513 1513 1512 1512 1511 1511 1511 1511 1511 1511 1511 1511 1511 1511 1511 1511 1511 1511 1511 1511 1511 1511 1511 1512 1512 1513 1514 1515 1516 1517 1518 1518 1519 1519 1520 1521 1522 1523 1524 1525
1517 1516 1515 1514 1514 1513 1513 1513 1512 1512 1512 1512 1512 1512 1513 1513 1513 1513 1513 1513 1513 1513 1513 1513 1513 1514 1514 1515 1515 1516 1517 1518 1518 1519 1520 1520 1520 1521 1522 1523 1524 1525 1526
1518 1517 1516 1516 1515 1515 1514 1514 1514 1514 1514 1514 1514 1514 1514 1514 1514 1514 1514 1514 1515 1514 1515 1515 1515 1516 1516 1517 1517 1518 1519 1519 1520 1521 1521 1522 1522 1523 1523 1524 1525 1526 1527
1519 1518 1518 1517 1517 1516 1516 1516 1515 1515 1515 1515 1515 1516 1516 1516 1516 1516 1516 1516 1516 1516 1516 1517 1517 1518 1518 1519 1519 1520 1520 1521 1522 1522 1523 1523 1524 1524 1525 1526 1526 1527 1528
1520 1519 1519 1518 1518 1518 1517 1517 1517 1517 1517 1517 1517 1517 1517 1518 1517 1518 1518 1518 1518 1518 1518 1518 1519 1520 1520 1521 1521 1522 1522 1523 1523 1524 1524 1525 1525 1526 1526 1527 1527 1528 1529
1521 1521 1521 1520 1520 1519 1519 1519 1519 1519 1519 1519 1519 1519 1519 1519 1519 1519 1519 1519 1520 1520 1520 1520 1521 1521 1522 1523 1523 1524 1524 1525 1525 1525 1525 1526 1527 1527 1528 1528 1529 1530 1530
1522 1522 1522 1522 1521 1521 1521 1520 1520 1520 1521 1521 1521 1521 1521 1521 1521 1521 1521 1521 1521 1522 1522 1523 1523 1524 1524 1525 1525 1526 1526 1526 1526 1527 1527 1528 1528 1528 1529 1529 1530 1530 1531
1524 1524 1524 1523 1523 1523 1522 1522 1522 1522 1522 1522 1522 1523 1523 1523 1523 1523 1523 1523 1523 1524 1524 1525 1525 1526 1526 1527 1527 1528 1528 1528 1528 1528 1528 1529 1529 1529 1530 1530 1531 1531 1532
1524 1525 1525 1525 1525 1524 1524 1524 1524 1524 1524 1524 1524 1525 1525 1525 1525 1525 1526 1526 1526 1526 1526 1527 1527 1527 1528 1529 1529 1530 1529 1530 1529 1529 1529 1528 1528 1529 1530 1531 1532 1532 1533
1524 1525 1525 1525 1525 1525 1525 1525 1525 1526 1526 1526 1526 1526 1527 1527 1527 1527 1527 1528 1528 1528 1528 1529 1529 1529 1530 1530 1531 1531 1531 1531 1530 1530 1529 1527 1525 1528 1530 1532 1533 1533 1534
1525 1525 1526 1526 1526 1526 1526 1526 1527 1527 1527 1527 1527 1528 1528 1528 1529 1529 1529 1529 1529 1530 1530 1530 1531 1531 1532 1532 1533 1533 1533 1533 1532 1532 1530 1527 1526 1529 1531 1533 1534 1534 1534
1525 1526 1526 1527 1527 1527 1527 1527 1528 1528 1528 1528 1528 1529 1529 1530 1530 1530 1530 1531 1531 1531 1532 1532 1532 1533 1533 1534 1534 1534 1534 1534 1534 1533 1533 1531 1531 1532 1533 1534 1535 1535 1535
1525 1526 1527 1527 1527 1528 1528 1528 1529 1529 1529 1529 1530 1530 1530 1531 1531 1531 1532 1532 1532 1533 1533 1533 1533 1534 1534 1535 1536 1536 1536 1536 1536 1535 1535 1535 1535 1535 1535 1536 1536 1536 1536
1525 1526 1527 1528 1528 1528 1529 1529 1529 1530 1530 1530 1531 1531 1532 1532 1532 1532 1533 1533 1534 1534 1534 1535 1535 1535 1536 1536 1537 1537 1537 1538 1537 1537 1537 1537 1537 1537 1537 1537 1537 1537 1537
1524 1525 1527 1528 1528 1529 1529 1530 1530 1531 1531 1531 1531 1532 1533 1533 1533 1533 1534 1534 1535 1535 1536 1536 1536 1536 1537 1537 1538 1538 1539 1539 1539 1539 1539 1538 1538 1538 1539 1538 1538 1538 1538
1524 1525 1526 1527 1528 1529 1530 1530 1531 1531 1531 1532 1532 1533 1533 1534 1534 1534 1535 1535 1536 1536 1536 1537 1537 1537 1538 1538 1539 1539 1540 1540 1540 1540 1540 1540 1540 1540 1539 1539 1539 1539 1539
1523 1524 1526 1527 1528 1528 1529 1530 1531 1532 1532 1532 1533 1534 1534 1534 1535 1535 1536 1536 1537 1537 1537 1538 1538 1538 1539 1539 1540 1540 1541 1541 1541 1542 1541 1541 1541 1541 1541 1540 1540 1540 1539
1523 1524 1525 1526 1527 1528 1529 1530 1531 1532 1532 1533 1534 1534 1535 1535 1536 1536 1537 1537 1537 1538 1538 1539 1539 1539 1540 1540 1541 1541 1542 1542 1542 1542 1542 1542 1542 1542 1542 1541 1541 1540 1540
1521 1523 1524 1525 1526 1528 1529 1530 1531 1532 1533 1533 1534 1534 1535 1536 1536 1537 1537 1538 1538 1538 1539 1539 1540 1540 1540 1541 1542 1542 1542 1544 1543 1543 1543 1543 1543 1543 1543 1543 1542 1541 1541
1520 1522 1523 1524 1526 1527 1528 1529 1531 1532 1532 1533 1534 1534 1535 1536 1536 1537 1538 1538 1539 1539 1539 1540 1540 1540 1541 1542 1542 1543 1543 1543 1544 1544 1544 1544 1544 1544 1544 1544 1543 1542 1542
1518 1520 1522 1523 1525 1526 1527 1528 1530 1531 1532 1533 1534 1534 1535 1536 1537 1537 1538 1539 1539 1540 1540 1540 1541 1541 1541 1542 1542 1543 1543 1543 1543 1544 1545 1545 1545 1544 1544 1544 1543 1543 1543
1517 1519 1521 1522 1524 1525 1526 1528 1529 1530 1532 1533 1534 1535 1536 1536 1537 1537 1538 1539 1539 1540 1540 1540 1541 1541 1541 1541 1542 1542 1542 1543 1543 1543 1544 1545 1545 1545 1544 1544 1543 1543 1543
1516 1517 1519 1521 1523 1524 1525 1527 1528 1530 1531 1532 1534 1534 1535 1536 1537 1537 1538 1538 1539 1539 1540 1540 1540 1541 1541 1541 1541 1542 1542 1542 1542 1542 1543 1544 1544 1545 1544 1544 1543 1543 1543